Location: Dompnac
(44.5644°N, 4.1026°E)
Time: 10:51:16
(UTC+00:00)

Cosmos 2026 Rocket - Pass Details

Date: 25 January 2021
Orbit: 940 x 1000 km, 82.9° (Epoch: 26 February)

Event Time Altitude Azimuth Distance (km) Brightness Sun altitude
Rises 06:14:00 0° 346° (NNW) 3,716 6.7 -10.0°
Reaches altitude 10° 06:16:38 10° 340° (NNW) 2,769 6.0 -9.6°
Maximum altitude 06:22:35 44° 271° (W) 1,356 4.4 -8.6°
Drops below altitude 10° 06:28:33 10° 201° (SSW) 2,763 6.4 -7.6°
Sets 06:31:10 0° 195° (SSW) 3,707 7.1 -7.1°
